When you browse on this site, cookies collect data to enhance your experience and personalize the content and advertising you see.
Visit our Privacy Policy to learn more. By continuing to use the site, you agree to this use of cookies and data.
  • In Hungary
  • List of Countries
  • For 7 days
  • Water Temperature
  • Weather Map
  • News
  • Weather Widgets
  • user-avatar
    Login

    Hourly Weather Seriate

    Today, 12 November, Tuesday

    Time Temperature Precipitation Wind Pressure Humidity
    00:00 +9°C° 1.8 mm 1 mps 734 mmHg 94%
    01:00 +9°C° 0 mm 1 mps 734 mmHg 93%
    02:00 +9°C° 1.2 mm 1 mps 734 mmHg 93%
    03:00 +9°C° 1.2 mm 1 mps 733 mmHg 93%
    04:00 +9°C° 1.2 mm 1 mps 733 mmHg 93%
    05:00 +9°C° 0.7 mm 1 mps 733 mmHg 93%
    06:00 +9°C° 0.7 mm 1 mps 732 mmHg 93%
    07:00 +9°C° 0 mm 1 mps 732 mmHg 91%
    08:00 +9°C° 0.6 mm 1 mps 732 mmHg 90%
    09:00 +9°C° 0.6 mm 1 mps 732 mmHg 90%
    10:00 +9°C° 0.6 mm 2 mps 732 mmHg 89%
    11:00 +9°C° 0.2 mm 2 mps 731 mmHg 86%
    12:00 +10°C° 0.2 mm 2 mps 730 mmHg 82%
    13:00 +12°C° 0.2 mm 2 mps 730 mmHg 79%
    14:00 +10°C° 0 mm 2 mps 729 mmHg 80%
    15:00 +10°C° 0 mm 2 mps 729 mmHg 81%
    16:00 +11°C° 0 mm 1 mps 728 mmHg 82%
    17:00 +9°C° 0 mm 2 mps 728 mmHg 82%
    18:00 +9°C° 0 mm 2 mps 728 mmHg 82%
    19:00 +8°C° 0 mm 2 mps 728 mmHg 81%
    20:00 +8°C° 0.6 mm 2 mps 728 mmHg 83%
    21:00 +7°C° 0.6 mm 2 mps 728 mmHg 85%
    22:00 +7°C° 0.6 mm 2 mps 727 mmHg 87%
    23:00 +7°C° 1.1 mm 2 mps 727 mmHg 87%

    Tomorrow, 13 November, Wednesday

    Time Temperature Precipitation Wind Pressure Humidity
    00:00 +7°C° 1.1 mm 2 mps 728 mmHg 87%
    01:00 +6°C° 1.1 mm 2 mps 728 mmHg 87%
    02:00 +6°C° 0.7 mm 2 mps 727 mmHg 86%
    03:00 +6°C° 0.7 mm 2 mps 727 mmHg 85%
    04:00 +5°C° 0.7 mm 2 mps 727 mmHg 85%
    05:00 +5°C° 0.2 mm 2 mps 727 mmHg 83%
    06:00 +5°C° 0.2 mm 2 mps 728 mmHg 82%
    07:00 +5°C° 0.2 mm 2 mps 728 mmHg 81%
    08:00 +6°C° 0 mm 2 mps 728 mmHg 77%
    09:00 +7°C° 0 mm 2 mps 728 mmHg 74%
    10:00 +7°C° 0 mm 2 mps 728 mmHg 70%
    11:00 +8°C° 0 mm 2 mps 728 mmHg 66%
    12:00 +9°C° 0 mm 2 mps 728 mmHg 63%
    13:00 +10°C° 0 mm 2 mps 727 mmHg 59%
    14:00 +9°C° 0 mm 2 mps 728 mmHg 62%
    15:00 +9°C° 0 mm 2 mps 728 mmHg 64%
    16:00 +8°C° 0 mm 2 mps 728 mmHg 66%
    17:00 +7°C° 0 mm 2 mps 729 mmHg 68%
    18:00 +6°C° 0 mm 2 mps 730 mmHg 69%
    19:00 +5°C° 0 mm 2 mps 731 mmHg 71%
    20:00 +4°C° 0 mm 2 mps 731 mmHg 69%
    21:00 +4°C° 0 mm 2 mps 731 mmHg 68%
    22:00 +4°C° 0 mm 2 mps 732 mmHg 67%
    23:00 +4°C° 0 mm 2 mps 732 mmHg 67%

    Day after tomorrow, 14 November, Thursday

    Time Temperature Precipitation Wind Pressure Humidity
    00:00 +4°C° 0 mm 2 mps 732 mmHg 67%
    01:00 +3°C° 0 mm 2 mps 732 mmHg 68%
    02:00 +3°C° 0 mm 2 mps 732 mmHg 68%
    03:00 +3°C° 0 mm 2 mps 733 mmHg 69%
    04:00 +4°C° 0 mm 1 mps 733 mmHg 70%
    05:00 +4°C° 0 mm 1 mps 733 mmHg 71%
    06:00 +4°C° 0 mm 1 mps 733 mmHg 71%
    07:00 +4°C° 0 mm 1 mps 734 mmHg 71%
    08:00 +6°C° 0 mm 1 mps 734 mmHg 69%
    09:00 +7°C° 0 mm 1 mps 734 mmHg 66%
    10:00 +7°C° 0 mm 0 mps 734 mmHg 64%
    11:00 +8°C° 0 mm 0 mps 734 mmHg 65%
    12:00 +8°C° 0 mm 0 mps 734 mmHg 66%
    13:00 +9°C° 0 mm 0 mps 733 mmHg 66%
    14:00 +9°C° 0 mm 1 mps 733 mmHg 69%
    15:00 +9°C° 0 mm 1 mps 732 mmHg 71%
    16:00 +9°C° 0 mm 1 mps 732 mmHg 74%
    17:00 +8°C° 0 mm 2 mps 732 mmHg 74%
    18:00 +8°C° 0 mm 2 mps 731 mmHg 73%
    19:00 +7°C° 0 mm 3 mps 731 mmHg 73%
    20:00 +7°C° 0.9 mm 3 mps 731 mmHg 77%
    21:00 +7°C° 0.9 mm 3 mps 730 mmHg 81%
    22:00 +7°C° 0.9 mm 3 mps 730 mmHg 85%
    23:00 +6°C° 1.8 mm 4 mps 729 mmHg 86%

    15 November, Friday

    Time Temperature Precipitation Wind Pressure Humidity
    00:00 +7°C° 1.8 mm 5 mps 729 mmHg 88%
    01:00 +7°C° 1.8 mm 6 mps 728 mmHg 89%
    02:00 +7°C° 3 mm 5 mps 728 mmHg 90%
    03:00 +7°C° 3 mm 5 mps 728 mmHg 92%
    04:00 +7°C° 3 mm 5 mps 728 mmHg 93%
    05:00 +7°C° 1.5 mm 4 mps 728 mmHg 93%
    06:00 +8°C° 1.5 mm 3 mps 728 mmHg 93%
    07:00 +8°C° 1.5 mm 3 mps 729 mmHg 93%
    08:00 +8°C° 0.7 mm 2 mps 729 mmHg 93%
    09:00 +9°C° 0.7 mm 2 mps 730 mmHg 93%
    10:00 +9°C° 0.7 mm 2 mps 730 mmHg 92%
    11:00 +9°C° 0.6 mm 2 mps 730 mmHg 90%
    12:00 +10°C° 0.6 mm 1 mps 730 mmHg 89%
    13:00 +10°C° 0.6 mm 1 mps 731 mmHg 87%
    14:00 +10°C° 0.8 mm 1 mps 730 mmHg 88%
    15:00 +9°C° 0.8 mm 1 mps 730 mmHg 90%
    16:00 +9°C° 0.8 mm 1 mps 730 mmHg 91%
    17:00 +8°C° 0.2 mm 1 mps 731 mmHg 91%
    18:00 +8°C° 0.2 mm 1 mps 731 mmHg 90%
    19:00 +6°C° 0.2 mm 0 mps 732 mmHg 89%
    20:00 +7°C° 0 mm 1 mps 732 mmHg 88%
    21:00 +7°C° 0 mm 1 mps 733 mmHg 88%
    22:00 +7°C° 0 mm 1 mps 733 mmHg 87%
    23:00 +7°C° 1.1 mm 1 mps 734 mmHg 89%

    16 November, Saturday

    Time Temperature Precipitation Wind Pressure Humidity
    00:00 +7°C° 1.1 mm 1 mps 734 mmHg 91%
    01:00 +7°C° 1.1 mm 1 mps 735 mmHg 93%
    02:00 +7°C° 0.3 mm 1 mps 735 mmHg 92%
    03:00 +7°C° 0.3 mm 1 mps 736 mmHg 91%
    04:00 +7°C° 0.3 mm 1 mps 736 mmHg 90%
    05:00 +7°C° 0.3 mm 1 mps 737 mmHg 90%
    06:00 +7°C° 0.3 mm 1 mps 737 mmHg 89%
    07:00 +7°C° 0.3 mm 1 mps 738 mmHg 89%
    08:00 +8°C° 0 mm 1 mps 738 mmHg 86%
    09:00 +8°C° 0 mm 1 mps 738 mmHg 84%
    10:00 +8°C° 0 mm 0 mps 739 mmHg 82%
    11:00 +8°C° 0 mm 0 mps 739 mmHg 81%
    12:00 +10°C° 0 mm 1 mps 738 mmHg 80%
    13:00 +10°C° 0 mm 1 mps 738 mmHg 79%
    14:00 +10°C° 0.1 mm 1 mps 738 mmHg 81%
    15:00 +10°C° 0.1 mm 1 mps 738 mmHg 84%
    16:00 +8°C° 0.1 mm 0 mps 738 mmHg 86%
    17:00 +8°C° 0.1 mm 0 mps 738 mmHg 86%
    18:00 +9°C° 0.1 mm 1 mps 738 mmHg 87%
    19:00 +8°C° 0.1 mm 1 mps 738 mmHg 87%
    20:00 +8°C° 0.1 mm 1 mps 737 mmHg 87%
    21:00 +8°C° 0.1 mm 1 mps 737 mmHg 87%
    22:00 +8°C° 0.1 mm 1 mps 737 mmHg 87%
    23:00 +8°C° 0.1 mm 1 mps 736 mmHg 85%

    17 November, Sunday

    Time Temperature Precipitation Wind Pressure Humidity
    00:00 +7°C° 0.1 mm 2 mps 735 mmHg 84%
    01:00 +7°C° 0.1 mm 2 mps 734 mmHg 82%
    02:00 +7°C° 0.4 mm 2 mps 734 mmHg 82%
    03:00 +7°C° 0.4 mm 2 mps 733 mmHg 82%
    04:00 +8°C° 0.4 mm 2 mps 733 mmHg 82%
    05:00 +8°C° 0.7 mm 2 mps 732 mmHg 85%
    06:00 +8°C° 0.7 mm 2 mps 732 mmHg 87%
    07:00 +9°C° 0.7 mm 1 mps 732 mmHg 90%
    08:00 +8°C° 0.2 mm 2 mps 731 mmHg 88%
    09:00 +9°C° 0.2 mm 2 mps 731 mmHg 87%
    10:00 +9°C° 0.2 mm 3 mps 730 mmHg 85%
    11:00 +9°C° 4.3 mm 3 mps 729 mmHg 88%
    12:00 +9°C° 4.3 mm 3 mps 728 mmHg 91%
    13:00 +9°C° 4.3 mm 2 mps 727 mmHg 93%
    14:00 +9°C° 4.5 mm 2 mps 727 mmHg 92%
    15:00 +9°C° 4.5 mm 3 mps 727 mmHg 90%
    16:00 +9°C° 4.5 mm 3 mps 727 mmHg 88%
    17:00 +9°C° 0.5 mm 2 mps 727 mmHg 89%
    18:00 +9°C° 0.5 mm 2 mps 727 mmHg 90%
    19:00 +9°C° 0.5 mm 2 mps 728 mmHg 90%
    20:00 +9°C° 1.1 mm 2 mps 728 mmHg 91%
    21:00 +9°C° 1.1 mm 2 mps 728 mmHg 91%
    22:00 +9°C° 1.1 mm 2 mps 729 mmHg 91%
    23:00 +10°C° 1.3 mm 1 mps 729 mmHg 92%
    Show more